Weather in Scranton

United States     41°24′22″N   75°39′42″W
temp.,
°C
wind,
m/s
gust,
m/s
humid.,
%
clouds,
%
prec.,
mm/h
press.,
hPa
HPBL,
m
18 september, sat
sat1823:00+18se119727 0.0 102136
02:00+17sw119922 0.0 102012
05:00+16s119915 0.0 101914
08:00+17wnw019733 0.0 101965
11:00+23nw247221 0.0 1019772
14:00+27nnw34511 0.1 10171818
17:00+23nnw477485 0.3 1016602
20:00+18nnw24988 0.9 1019133
19 september, sun
sun1923:00+16nw259820 0.0 1020189
02:00+13nw129860 0.0 102134
05:00+11nnw11975 0.0 102219
08:00+11nw12935 0.0 102381
11:00+18nnw365499 0.0 1023737
14:00+21nnw34367 0.0 10221243
17:00+21nnw23490 0.0 1021965
20:00+13n11770 0.0 102311
20 september, mon
mon2023:00+11ene11830 0.0 102510
02:00+10ese11860 0.0 102610
05:00+10e11880 0.0 102611
08:00+12se11790 0.0 102751
11:00+20s35571 0.0 1027877
14:00+23s45495 0.0 10261404
17:00+22sse356076 0.0 10251372
20:00+16sse310811 0.0 1027374
21 september, tue
tue2123:00+13se258860 0.0 1028132
02:00+11ese2295100 0.0 102932
05:00+11ese1197100 0.0 102827
08:00+12ese139497 0.0 1029119
11:00+19sse4771100 0.0 10271069
14:00+22sse575375 0.0 10261597
17:00+20se4871100 0.0 1024841
20:00+18se41176100 0.0 1024691
22 september, wed
wed2223:00+17sse41283100 0.0 1022764
02:00+18se51382100 0.1 1020801
05:00+18sse51391100 0.1 1018827
08:00+18sse51398100 0.9 1016852
11:00+19sse51196100 1.4 1015964
14:00+19s41196100 4.5 1013865
17:00+18s2799100 13.1 1010451
20:00+14w1499100 26.2 1013178